QPF
0.00 0.01 0.01 0.02 0.01 0.01 0.01 0.02 0.02 0.01 0.02 0.03 0.03 0.03 0.02 0.01 0.02 0.02 0.01 0.00 0.00 0.01 0.01 0.02 0.02 0.01 0.02 0.02 0.01 0.00 0.00 0.00 0.00 0.01 0.01 0.01 0.02 0.03 0.02 0.03 0.05 0.04 0.04
0.01 0.01 0.01 0.01 0.01 0.01 0.01 0.01 0.01 0.02 0.03 0.03 0.04 0.03 0.02 0.02 0.02 0.02 0.01 0.00 0.00 0.01 0.01 0.01 0.02 0.02 0.02 0.03 0.02 0.01 0.01 0.01 0.01 0.01 0.01 0.01 0.02 0.02 0.01 0.01 0.04 0.05 0.04
0.01 0.01 0.00 0.01 0.01 0.01 0.01 0.02 0.02 0.02 0.04 0.03 0.04 0.03 0.01 0.02 0.01 0.01 0.01 0.01 0.00 0.01 0.01 0.01 0.02 0.02 0.03 0.04 0.04 0.03 0.02 0.02 0.02 0.01 0.01 0.01 0.02 0.02 0.01 0.01 0.01 0.04 0.05
0.00 0.00 0.00 0.01 0.00 0.01 0.02 0.02 0.02 0.03 0.04 0.04 0.04 0.03 0.02 0.02 0.01 0.01 0.01 0.02 0.01 0.01 0.01 0.01 0.01 0.02 0.02 0.03 0.04 0.04 0.03 0.03 0.03 0.02 0.02 0.01 0.02 0.02 0.01 0.02 0.01 0.02 0.03
0.00 0.00 0.00 0.00 0.01 0.02 0.02 0.02 0.02 0.03 0.04 0.04 0.04 0.03 0.03 0.02 0.02 0.02 0.02 0.02 0.01 0.01 0.01 0.01 0.01 0.02 0.02 0.02 0.02 0.03 0.03 0.03 0.02 0.03 0.02 0.02 0.01 0.01 0.01 0.02 0.02 0.02 0.02
0.00 0.00 0.00 0.00 0.01 0.01 0.01 0.02 0.03 0.03 0.04 0.04 0.04 0.04 0.03 0.03 0.02 0.02 0.02 0.01 0.01 0.01 0.01 0.01 0.01 0.01 0.01 0.01 0.01 0.01 0.02 0.02 0.02 0.02 0.02 0.02 0.02 0.02 0.02 0.03 0.03 0.03 0.02
0.00 0.00 0.00 0.00 0.00 0.00 0.01 0.01 0.02 0.03 0.05 0.04 0.04 0.04 0.04 0.03 0.02 0.02 0.02 0.02 0.01 0.01 0.01 0.01 0.01 0.01 0.01 0.00 0.00 0.01 0.01 0.01 0.01 0.01 0.02 0.02 0.02 0.02 0.02 0.02 0.02 0.02 0.02
0.00 0.00 0.00 0.00 0.00 0.01 0.01 0.01 0.02 0.03 0.05 0.04 0.03 0.04 0.04 0.04 0.03 0.03 0.02 0.02 0.01 0.01 0.01 0.01 0.01 0.01 0.00 0.00 0.00 0.00 0.01 0.01 0.01 0.01 0.01 0.01 0.01 0.01 0.02 0.02 0.02 0.01 0.01
0.00 0.00 0.00 0.00 0.01 0.01 0.01 0.01 0.02 0.02 0.03 0.03 0.03 0.04 0.03 0.03 0.03 0.03 0.02 0.02 0.02 0.01 0.01 0.01 0.01 0.01 0.01 0.00 0.00 0.00 0.01 0.01 0.01 0.00 0.00 0.00 0.00 0.01 0.01 0.02 0.02 0.02 0.02
0.00 0.00 0.00 0.00 0.01 0.01 0.01 0.01 0.01 0.01 0.01 0.02 0.03 0.03 0.03 0.03 0.03 0.03 0.02 0.02 0.02 0.02 0.01 0.01 0.02 0.01 0.01 0.01 0.01 0.01 0.01 0.01 0.01 0.01 0.00 0.00 0.00 0.00 0.01 0.01 0.01 0.01 0.02
0.00 0.00 0.01 0.01 0.00 0.00 0.00 0.00 0.00 0.01 0.01 0.02 0.03 0.04 0.04 0.03 0.03 0.04 0.03 0.02 0.03 0.02 0.02 0.01 0.01 0.01 0.01 0.01 0.02 0.02 0.02 0.02 0.01 0.01 0.01 0.01 0.01 0.01 0.01 0.01 0.01 0.01 0.01
0.00 0.00 0.01 0.00 0.00 0.00 0.00 0.00 0.00 0.01 0.01 0.02 0.03 0.05 0.05 0.03 0.03 0.04 0.04 0.02 0.02 0.02 0.01 0.01 0.01 0.01 0.01 0.01 0.01 0.02 0.01 0.01 0.01 0.01 0.02 0.02 0.03 0.02 0.01 0.01 0.01 0.01 0.02
0.00 0.00 0.01 0.00 0.00 0.00 0.00 0.00 0.00 0.01 0.02 0.03 0.03 0.03 0.04 0.04 0.03 0.03 0.03 0.02 0.01 0.01 0.01 0.01 0.01 0.01 0.01 0.01 0.01 0.01 0.01 0.02 0.01 0.02 0.02 0.02 0.02 0.02 0.02 0.01 0.01 0.01 0.01
0.00 0.01 0.00 0.00 0.00 0.00 0.00 0.00 0.01 0.01 0.02 0.04 0.04 0.03 0.04 0.04 0.03 0.02 0.02 0.02 0.02 0.01 0.01 0.01 0.01 0.00 0.00 0.00 0.00 0.00 0.01 0.01 0.01 0.01 0.01 0.01 0.02 0.02 0.02 0.01 0.01 0.01 0.01
0.01 0.01 0.01 0.01 0.01 0.01 0.01 0.00 0.01 0.01 0.02 0.03 0.05 0.05 0.04 0.04 0.03 0.02 0.02 0.02 0.02 0.01 0.01 0.01 0.01 0.00 0.00 0.01 0.00 0.00 0.00 0.00 0.01 0.01 0.01 0.01 0.02 0.02 0.02 0.01 0.02 0.01 0.01
0.01 0.01 0.01 0.01 0.01 0.01 0.01 0.01 0.01 0.01 0.01 0.02 0.04 0.06 0.06 0.06 0.04 0.03 0.03 0.02 0.02 0.02 0.02 0.01 0.01 0.01 0.01 0.01 0.01 0.00 0.00 0.00 0.00 0.01 0.01 0.01 0.01 0.02 0.01 0.01 0.01 0.01 0.01
0.00 0.01 0.01 0.01 0.01 0.01 0.02 0.02 0.02 0.02 0.02 0.02 0.02 0.05 0.06 0.05 0.05 0.05 0.04 0.03 0.03 0.02 0.01 0.01 0.01 0.01 0.01 0.01 0.01 0.01 0.01 0.00 0.01 0.00 0.01 0.01 0.01 0.01 0.01 0.01 0.01 0.00 0.01
0.01 0.01 0.01 0.01 0.01 0.01 0.02 0.03 0.04 0.03 0.03 0.02 0.02 0.04 0.06 0.06 0.05 0.06 0.07 0.05 0.04 0.03 0.02 0.01 0.02 0.02 0.01 0.01 0.01 0.01 0.01 0.01 0.00 0.00 0.00 0.01 0.02 0.02 0.02 0.01 0.01 0.00 0.00
0.01 0.01 0.01 0.01 0.01 0.02 0.02 0.02 0.02 0.03 0.02 0.02 0.01 0.02 0.03 0.05 0.06 0.05 0.05 0.05 0.04 0.04 0.04 0.03 0.02 0.02 0.02 0.01 0.02 0.02 0.01 0.01 0.00 0.00 0.00 0.02 0.03 0.03 0.03 0.02 0.01 0.01 0.00
0.01 0.01 0.01 0.01 0.01 0.01 0.01 0.01 0.01 0.01 0.01 0.01 0.01 0.01 0.02 0.03 0.06 0.07 0.07 0.05 0.04 0.03 0.03 0.04 0.03 0.02 0.02 0.02 0.03 0.02 0.01 0.01 0.01 0.00 0.00 0.01 0.03 0.04 0.03 0.03 0.03 0.02 0.01
0.01 0.01 0.02 0.02 0.01 0.01 0.02 0.01 0.01 0.01 0.01 0.01 0.01 0.01 0.01 0.02 0.03 0.06 0.07 0.05 0.05 0.04 0.03 0.02 0.03 0.03 0.02 0.03 0.03 0.03 0.02 0.02 0.02 0.01 0.01 0.01 0.02 0.02 0.02 0.02 0.03 0.03 0.02
0.01 0.02 0.02 0.02 0.01 0.01 0.02 0.02 0.01 0.01 0.01 0.01 0.01 0.01 0.01 0.01 0.02 0.03 0.06 0.06 0.05 0.05 0.04 0.03 0.03 0.04 0.03 0.02 0.02 0.02 0.02 0.02 0.02 0.02 0.02 0.01 0.02 0.02 0.03 0.03 0.03 0.04 0.03
0.01 0.02 0.02 0.02 0.02 0.02 0.02 0.02 0.02 0.02 0.01 0.01 0.01 0.01 0.01 0.02 0.02 0.02 0.03 0.06 0.06 0.05 0.05 0.04 0.03 0.03 0.03 0.03 0.02 0.01 0.02 0.02 0.01 0.02 0.02 0.02 0.02 0.02 0.02 0.04 0.05 0.04 0.04
0.01 0.02 0.02 0.03 0.02 0.02 0.02 0.01 0.01 0.01 0.01 0.01 0.01 0.01 0.01 0.02 0.03 0.03 0.02 0.03 0.05 0.04 0.04 0.04 0.04 0.03 0.02 0.02 0.02 0.02 0.01 0.01 0.01 0.02 0.03 0.03 0.02 0.02 0.01 0.01 0.02 0.03 0.04
0.01 0.02 0.02 0.03 0.03 0.02 0.01 0.01 0.01 0.01 0.01 0.01 0.02 0.02 0.02 0.02 0.03 0.04 0.04 0.03 0.03 0.03 0.03 0.03 0.03 0.03 0.03 0.02 0.02 0.02 0.02 0.01 0.01 0.02 0.02 0.03 0.03 0.02 0.02 0.01 0.01 0.02 0.04
0.01 0.01 0.02 0.02 0.03 0.04 0.02 0.02 0.02 0.02 0.02 0.02 0.02 0.02 0.02 0.02 0.03 0.03 0.05 0.06 0.04 0.03 0.03 0.03 0.03 0.02 0.02 0.02 0.02 0.02 0.02 0.02 0.02 0.03 0.03 0.03 0.04 0.05 0.05 0.04 0.04 0.03 0.03
MSLP
1022.69 1022.84 1022.98 1023.08 1023.14 1023.16 1023.14 1023.11 1023.08 1023.08 1023.10 1023.17 1023.28 1023.43 1023.59 1023.74 1023.88 1023.98 1024.05 1024.08 1024.09 1024.11 1024.16 1024.25 1024.41 1024.63 1024.91 1025.20 1025.50 1025.75 1025.95 1026.08 1026.14 1026.17 1026.17 1026.20 1026.25 1026.34 1026.47 1026.60 1026.69 1026.73 1026.68
1023.28 1023.43 1023.59 1023.73 1023.82 1023.86 1023.85 1023.82 1023.78 1023.76 1023.78 1023.84 1023.97 1024.14 1024.33 1024.52 1024.69 1024.82 1024.90 1024.94 1024.94 1024.94 1024.97 1025.03 1025.16 1025.34 1025.57 1025.82 1026.06 1026.27 1026.42 1026.50 1026.53 1026.53 1026.53 1026.55 1026.62 1026.74 1026.91 1027.08 1027.23 1027.33 1027.33
1023.86 1023.98 1024.13 1024.28 1024.40 1024.47 1024.49 1024.47 1024.44 1024.42 1024.43 1024.50 1024.63 1024.80 1025.00 1025.21 1025.40 1025.54 1025.62 1025.66 1025.66 1025.64 1025.64 1025.67 1025.76 1025.89 1026.07 1026.27 1026.46 1026.61 1026.72 1026.78 1026.79 1026.78 1026.78 1026.82 1026.91 1027.07 1027.28 1027.50 1027.72 1027.88 1027.96
1024.45 1024.50 1024.61 1024.75 1024.88 1024.97 1025.02 1025.04 1025.02 1025.02 1025.04 1025.11 1025.23 1025.39 1025.59 1025.80 1025.98 1026.12 1026.21 1026.24 1026.23 1026.19 1026.16 1026.16 1026.20 1026.29 1026.41 1026.55 1026.69 1026.81 1026.89 1026.93 1026.93 1026.93 1026.95 1027.01 1027.13 1027.32 1027.57 1027.84 1028.11 1028.34 1028.49
1025.08 1025.02 1025.06 1025.15 1025.27 1025.38 1025.45 1025.50 1025.52 1025.53 1025.56 1025.63 1025.74 1025.90 1026.08 1026.28 1026.45 1026.58 1026.66 1026.68 1026.65 1026.60 1026.54 1026.50 1026.50 1026.54 1026.61 1026.70 1026.80 1026.88 1026.94 1026.98 1026.99 1027.01 1027.04 1027.13 1027.27 1027.48 1027.75 1028.06 1028.37 1028.66 1028.88
1025.77 1025.58 1025.52 1025.55 1025.63 1025.73 1025.81 1025.88 1025.92 1025.95 1026.00 1026.07 1026.17 1026.31 1026.48 1026.65 1026.80 1026.92 1026.99 1027.00 1026.96 1026.89 1026.81 1026.74 1026.69 1026.68 1026.70 1026.75 1026.81 1026.87 1026.92 1026.95 1026.98 1027.01 1027.06 1027.16 1027.31 1027.53 1027.81 1028.13 1028.47 1028.79 1029.07
1026.52 1026.21 1026.04 1025.98 1026.00 1026.07 1026.14 1026.20 1026.26 1026.30 1026.35 1026.41 1026.51 1026.63 1026.77 1026.92 1027.05 1027.15 1027.21 1027.21 1027.16 1027.08 1026.98 1026.88 1026.80 1026.76 1026.74 1026.75 1026.78 1026.82 1026.86 1026.89 1026.92 1026.96 1027.02 1027.12 1027.27 1027.47 1027.74 1028.05 1028.39 1028.73 1029.06
1027.33 1026.92 1026.64 1026.49 1026.44 1026.44 1026.47 1026.51 1026.55 1026.58 1026.62 1026.67 1026.75 1026.85 1026.97 1027.09 1027.20 1027.28 1027.32 1027.32 1027.27 1027.18 1027.08 1026.97 1026.87 1026.79 1026.75 1026.73 1026.74 1026.76 1026.78 1026.81 1026.84 1026.88 1026.94 1027.02 1027.15 1027.33 1027.56 1027.85 1028.18 1028.53 1028.88
1028.15 1027.67 1027.32 1027.08 1026.93 1026.86 1026.83 1026.82 1026.81 1026.81 1026.82 1026.85 1026.90 1026.97 1027.06 1027.16 1027.24 1027.31 1027.34 1027.33 1027.29 1027.21 1027.11 1027.00 1026.90 1026.82 1026.76 1026.73 1026.71 1026.72 1026.74 1026.76 1026.79 1026.82 1026.86 1026.92 1027.02 1027.16 1027.36 1027.60 1027.91 1028.25 1028.61
1028.93 1028.43 1028.02 1027.71 1027.48 1027.32 1027.21 1027.13 1027.06 1027.01 1026.98 1026.97 1026.98 1027.01 1027.07 1027.13 1027.19 1027.23 1027.26 1027.25 1027.21 1027.15 1027.07 1026.98 1026.90 1026.83 1026.77 1026.74 1026.73 1026.73 1026.74 1026.76 1026.77 1026.79 1026.82 1026.86 1026.92 1027.02 1027.17 1027.38 1027.65 1027.98 1028.35
1029.60 1029.11 1028.69 1028.33 1028.04 1027.80 1027.60 1027.44 1027.30 1027.19 1027.10 1027.04 1027.00 1026.99 1027.00 1027.02 1027.05 1027.07 1027.08 1027.07 1027.04 1027.01 1026.96 1026.90 1026.85 1026.81 1026.78 1026.77 1026.76 1026.77 1026.78 1026.80 1026.81 1026.82 1026.83 1026.85 1026.89 1026.95 1027.07 1027.24 1027.48 1027.78 1028.15
1030.11 1029.68 1029.27 1028.89 1028.55 1028.25 1027.98 1027.74 1027.54 1027.36 1027.21 1027.10 1027.01 1026.95 1026.90 1026.87 1026.85 1026.84 1026.82 1026.81 1026.79 1026.77 1026.76 1026.75 1026.74 1026.74 1026.75 1026.77 1026.79 1026.81 1026.83 1026.85 1026.87 1026.88 1026.88 1026.89 1026.91 1026.96 1027.05 1027.19 1027.40 1027.69 1028.04
1030.45 1030.10 1029.73 1029.36 1029.00 1028.66 1028.33 1028.04 1027.78 1027.55 1027.35 1027.19 1027.05 1026.93 1026.82 1026.73 1026.66 1026.59 1026.53 1026.49 1026.47 1026.46 1026.48 1026.50 1026.54 1026.59 1026.64 1026.70 1026.75 1026.79 1026.84 1026.87 1026.90 1026.91 1026.92 1026.94 1026.96 1027.00 1027.07 1027.20 1027.39 1027.66 1027.99
1030.63 1030.38 1030.07 1029.73 1029.38 1029.02 1028.67 1028.34 1028.04 1027.78 1027.55 1027.34 1027.15 1026.98 1026.81 1026.65 1026.50 1026.36 1026.25 1026.16 1026.11 1026.10 1026.12 1026.17 1026.24 1026.33 1026.42 1026.51 1026.59 1026.67 1026.73 1026.78 1026.83 1026.86 1026.89 1026.92 1026.95 1027.00 1027.08 1027.21 1027.38 1027.62 1027.93
1030.72 1030.56 1030.32 1030.03 1029.70 1029.35 1029.00 1028.67 1028.36 1028.08 1027.82 1027.59 1027.36 1027.13 1026.90 1026.66 1026.43 1026.21 1026.01 1025.86 1025.76 1025.70 1025.71 1025.76 1025.84 1025.95 1026.06 1026.18 1026.28 1026.38 1026.46 1026.54 1026.60 1026.66 1026.72 1026.78 1026.84 1026.91 1027.01 1027.14 1027.31 1027.53 1027.80
1030.76 1030.68 1030.52 1030.28 1029.99 1029.67 1029.34 1029.02 1028.73 1028.45 1028.19 1027.94 1027.68 1027.40 1027.10 1026.78 1026.46 1026.14 1025.85 1025.61 1025.43 1025.31 1025.27 1025.29 1025.36 1025.46 1025.57 1025.69 1025.80 1025.91 1026.00 1026.09 1026.18 1026.27 1026.37 1026.47 1026.57 1026.68 1026.81 1026.95 1027.12 1027.33 1027.57
1030.80 1030.80 1030.70 1030.52 1030.27 1030.00 1029.70 1029.41 1029.14 1028.88 1028.63 1028.37 1028.09 1027.77 1027.41 1027.01 1026.60 1026.18 1025.79 1025.44 1025.16 1024.96 1024.85 1024.81 1024.83 1024.89 1024.98 1025.08 1025.18 1025.28 1025.38 1025.48 1025.59 1025.70 1025.84 1025.98 1026.13 1026.29 1026.46 1026.63 1026.82 1027.02 1027.24
1030.86 1030.91 1030.87 1030.74 1030.55 1030.31 1030.06 1029.81 1029.57 1029.33 1029.09 1028.84 1028.54 1028.19 1027.78 1027.32 1026.82 1026.31 1025.82 1025.37 1024.99 1024.69 1024.49 1024.37 1024.32 1024.32 1024.36 1024.41 1024.48 1024.55 1024.63 1024.73 1024.85 1024.99 1025.16 1025.36 1025.56 1025.78 1026.00 1026.21 1026.42 1026.63 1026.84
1030.91 1031.01 1031.01 1030.93 1030.77 1030.58 1030.37 1030.16 1029.95 1029.74 1029.52 1029.28 1028.97 1028.61 1028.17 1027.66 1027.10 1026.52 1025.94 1025.40 1024.93 1024.54 1024.24 1024.03 1023.90 1023.82 1023.78 1023.77 1023.78 1023.81 1023.86 1023.94 1024.06 1024.21 1024.41 1024.65 1024.91 1025.19 1025.46 1025.73 1025.98 1026.21 1026.43
1030.91 1031.04 1031.07 1031.03 1030.91 1030.76 1030.58 1030.40 1030.23 1030.05 1029.86 1029.63 1029.34 1028.97 1028.52 1027.99 1027.40 1026.78 1026.15 1025.55 1025.00 1024.53 1024.15 1023.85 1023.62 1023.46 1023.33 1023.24 1023.18 1023.14 1023.14 1023.19 1023.28 1023.44 1023.66 1023.92 1024.23 1024.56 1024.89 1025.21 1025.51 1025.78 1026.03
1030.78 1030.94 1031.01 1030.99 1030.91 1030.79 1030.65 1030.50 1030.37 1030.22 1030.06 1029.85 1029.59 1029.24 1028.81 1028.29 1027.70 1027.07 1026.42 1025.79 1025.20 1024.68 1024.23 1023.85 1023.54 1023.29 1023.07 1022.89 1022.74 1022.63 1022.55 1022.54 1022.60 1022.72 1022.93 1023.20 1023.54 1023.90 1024.28 1024.66 1025.01 1025.33 1025.62
1030.49 1030.67 1030.76 1030.77 1030.73 1030.64 1030.54 1030.44 1030.33 1030.23 1030.10 1029.94 1029.71 1029.41 1029.02 1028.54 1027.99 1027.38 1026.75 1026.13 1025.53 1024.98 1024.49 1024.05 1023.67 1023.33 1023.03 1022.75 1022.50 1022.29 1022.13 1022.03 1022.01 1022.08 1022.25 1022.49 1022.82 1023.19 1023.60 1024.01 1024.41 1024.77 1025.11
1030.01 1030.22 1030.34 1030.38 1030.37 1030.32 1030.27 1030.20 1030.15 1030.08 1030.00 1029.89 1029.72 1029.47 1029.14 1028.73 1028.24 1027.69 1027.11 1026.52 1025.95 1025.40 1024.88 1024.41 1023.97 1023.56 1023.17 1022.80 1022.44 1022.12 1021.85 1021.65 1021.53 1021.51 1021.59 1021.77 1022.05 1022.39 1022.79 1023.21 1023.63 1024.03 1024.41
1029.39 1029.61 1029.75 1029.83 1029.86 1029.87 1029.86 1029.84 1029.84 1029.82 1029.80 1029.74 1029.63 1029.45 1029.20 1028.86 1028.45 1027.98 1027.47 1026.94 1026.41 1025.88 1025.37 1024.88 1024.40 1023.92 1023.46 1022.99 1022.53 1022.10 1021.71 1021.38 1021.13 1020.98 1020.94 1021.02 1021.20 1021.48 1021.82 1022.21 1022.62 1023.04 1023.45
1028.66 1028.89 1029.07 1029.19 1029.27 1029.32 1029.37 1029.41 1029.45 1029.49 1029.52 1029.52 1029.47 1029.36 1029.18 1028.92 1028.60 1028.21 1027.78 1027.32 1026.84 1026.35 1025.86 1025.37 1024.86 1024.35 1023.82 1023.27 1022.72 1022.18 1021.66 1021.19 1020.80 1020.50 1020.32 1020.25 1020.30 1020.45 1020.70 1021.02 1021.38 1021.78 1022.19
1027.91 1028.16 1028.36 1028.52 1028.65 1028.76 1028.86 1028.95 1029.04 1029.13 1029.20 1029.24 1029.25 1029.20 1029.08 1028.90 1028.65 1028.35 1027.99 1027.60 1027.18 1026.75 1026.29 1025.81 1025.30 1024.76 1024.19 1023.59 1022.96 1022.32 1021.69 1021.10 1020.56 1020.11 1019.76 1019.53 1019.41 1019.41 1019.52 1019.72 1019.99 1020.32 1020.70
Thickness
5715 5715 5714 5713 5713 5712 5712 5710 5709 5708 5707 5705 5703 5701 5701 5701 5700 5700 5700 5699 5700 5699 5699 5699 5698 5696 5696 5695 5695 5693 5692 5691 5692 5690 5688 5687 5687 5685 5684 5684 5683 5683 5683
5713 5711 5711 5710 5710 5709 5709 5708 5707 5706 5704 5702 5701 5700 5698 5698 5697 5695 5695 5696 5696 5695 5695 5695 5694 5692 5691 5690 5690 5688 5688 5687 5687 5686 5684 5681 5680 5678 5679 5678 5677 5678 5677
5711 5709 5708 5707 5707 5706 5705 5705 5705 5703 5701 5699 5698 5696 5694 5694 5693 5692 5691 5691 5691 5691 5690 5690 5690 5689 5688 5686 5685 5684 5683 5682 5682 5683 5680 5677 5673 5672 5673 5673 5672 5671 5671
5710 5708 5706 5705 5704 5703 5704 5704 5702 5702 5699 5697 5695 5692 5690 5689 5689 5689 5688 5687 5687 5686 5686 5685 5685 5684 5684 5682 5681 5681 5679 5677 5677 5676 5675 5676 5673 5670 5665 5666 5667 5666 5666
5708 5706 5704 5703 5703 5701 5700 5701 5700 5698 5697 5695 5692 5690 5688 5688 5687 5686 5685 5685 5684 5682 5681 5681 5680 5680 5679 5677 5676 5675 5675 5674 5673 5672 5671 5669 5668 5669 5665 5660 5660 5661 5661
5707 5704 5703 5701 5699 5698 5695 5695 5694 5693 5691 5691 5690 5688 5686 5684 5682 5681 5680 5680 5680 5679 5678 5676 5676 5675 5674 5673 5671 5670 5670 5669 5668 5667 5666 5665 5664 5663 5661 5658 5657 5655 5655
5704 5702 5699 5696 5695 5693 5691 5691 5690 5688 5687 5686 5686 5685 5683 5681 5680 5679 5677 5676 5676 5675 5674 5673 5672 5671 5669 5668 5667 5666 5665 5664 5662 5661 5661 5661 5660 5660 5659 5657 5654 5652 5651
5701 5699 5697 5694 5692 5690 5688 5688 5686 5684 5683 5683 5682 5682 5680 5678 5677 5676 5675 5674 5673 5673 5671 5670 5668 5667 5665 5663 5662 5661 5661 5660 5658 5657 5655 5655 5655 5655 5654 5652 5650 5648 5647
5697 5695 5693 5691 5689 5687 5686 5685 5683 5682 5680 5679 5678 5677 5676 5675 5673 5673 5673 5671 5670 5669 5668 5666 5665 5663 5661 5659 5658 5657 5656 5655 5654 5652 5652 5650 5650 5649 5649 5648 5647 5644 5642
5692 5691 5689 5687 5686 5684 5683 5682 5680 5679 5677 5676 5675 5673 5672 5671 5670 5669 5668 5667 5666 5665 5664 5663 5662 5660 5657 5655 5654 5653 5651 5650 5648 5646 5646 5646 5646 5645 5644 5643 5643 5642 5640
5688 5686 5684 5683 5681 5680 5678 5676 5675 5674 5672 5671 5671 5669 5668 5667 5666 5664 5664 5663 5662 5661 5660 5659 5658 5656 5654 5652 5650 5648 5646 5646 5645 5643 5642 5641 5640 5639 5639 5638 5637 5636 5635
5683 5682 5680 5678 5676 5674 5673 5672 5671 5669 5668 5667 5666 5665 5664 5663 5662 5660 5659 5659 5658 5657 5656 5655 5653 5652 5650 5648 5646 5644 5642 5641 5640 5639 5638 5637 5635 5634 5633 5632 5632 5631 5630
5677 5676 5674 5672 5671 5669 5668 5667 5666 5664 5663 5662 5661 5660 5659 5658 5657 5656 5655 5654 5654 5653 5652 5651 5649 5647 5645 5643 5641 5640 5638 5637 5636 5635 5633 5633 5631 5629 5628 5627 5627 5626 5625
5670 5669 5667 5666 5665 5664 5663 5661 5660 5659 5658 5657 5656 5654 5655 5654 5653 5651 5650 5649 5648 5648 5647 5647 5645 5643 5640 5639 5637 5636 5634 5632 5631 5630 5629 5628 5627 5625 5624 5622 5622 5621 5620
5664 5662 5660 5660 5658 5658 5657 5656 5655 5654 5653 5651 5650 5649 5649 5648 5647 5645 5644 5643 5642 5642 5641 5641 5639 5637 5635 5633 5632 5630 5628 5627 5626 5625 5624 5623 5620 5618 5617 5617 5616 5615 5614
5658 5657 5656 5654 5653 5652 5651 5650 5650 5649 5648 5646 5645 5643 5642 5641 5640 5639 5638 5637 5636 5635 5635 5634 5633 5631 5629 5625 5623 5623 5623 5622 5622 5621 5619 5618 5615 5612 5610 5609 5609 5608 5608
5652 5651 5651 5650 5649 5648 5647 5644 5644 5643 5642 5640 5638 5637 5636 5634 5634 5633 5631 5630 5629 5629 5628 5628 5627 5626 5623 5619 5617 5615 5617 5617 5617 5616 5615 5613 5611 5607 5607 5605 5603 5603 5602
5647 5646 5646 5645 5644 5643 5641 5640 5638 5637 5636 5634 5632 5631 5629 5628 5627 5626 5625 5624 5624 5622 5621 5621 5621 5619 5617 5613 5611 5610 5612 5613 5612 5610 5609 5608 5607 5604 5602 5601 5600 5600 5599
5642 5641 5641 5640 5638 5637 5636 5634 5633 5631 5629 5628 5627 5625 5623 5621 5620 5619 5619 5618 5617 5616 5614 5614 5614 5613 5611 5607 5605 5603 5606 5607 5607 5605 5604 5603 5602 5598 5595 5596 5597 5596 5595
5635 5635 5634 5634 5632 5631 5630 5629 5627 5625 5623 5622 5621 5619 5617 5615 5614 5613 5612 5611 5610 5609 5608 5607 5608 5607 5606 5602 5599 5597 5600 5601 5601 5600 5599 5595 5594 5591 5588 5590 5591 5590 5590
5627 5627 5626 5625 5625 5625 5624 5622 5621 5619 5617 5615 5614 5612 5610 5609 5608 5607 5605 5604 5603 5602 5601 5601 5601 5600 5599 5597 5593 5591 5594 5594 5594 5594 5593 5591 5586 5584 5582 5582 5584 5583 5582
5619 5619 5618 5617 5616 5616 5616 5614 5612 5611 5609 5607 5606 5604 5603 5601 5600 5599 5598 5597 5596 5595 5594 5594 5594 5593 5592 5590 5588 5585 5585 5585 5587 5587 5586 5584 5580 5577 5576 5576 5576 5575 5574
5611 5610 5610 5608 5607 5607 5606 5606 5604 5603 5601 5600 5598 5597 5595 5594 5593 5592 5591 5589 5588 5588 5588 5587 5586 5586 5586 5584 5580 5578 5577 5577 5578 5579 5577 5575 5572 5571 5571 5570 5569 5568 5569
5601 5601 5600 5599 5598 5596 5595 5595 5595 5594 5593 5592 5591 5590 5589 5588 5587 5585 5583 5582 5582 5581 5580 5580 5580 5580 5579 5577 5575 5574 5572 5570 5570 5570 5569 5567 5565 5565 5565 5565 5564 5563 5563
5592 5591 5590 5589 5588 5587 5585 5585 5585 5585 5585 5585 5583 5583 5581 5580 5579 5578 5575 5575 5574 5574 5572 5572 5572 5571 5571 5569 5566 5565 5566 5565 5564 5562 5562 5561 5561 5561 5561 5561 5560 5558 5557
5583 5581 5580 5579 5579 5577 5576 5575 5575 5575 5576 5576 5575 5574 5573 5571 5570 5570 5568 5564 5564 5563 5562 5561 5561 5562 5560 5559 5557 5555 5555 5554 5553 5553 5554 5554 5555 5555 5555 5554 5553 5552 5550